Regional Weather Roundup
Issued by NWS State College, PA

Home | Current Version | Previous Version | Text Only | Print | Product List | Glossary On
Versions: 1 2 3 4 5 6 7 8 9 10 11 12 13 14 15 16 17 18 19 20 21 22 23 24 25 26 27 28 29 30 31 32 33 34 35 36 37 38 39 40 41 42 43 44 45 46 47 48 49 50
555
ASUS41 KCTP 061203
RWRCTP

REGIONAL WEATHER ROUNDUP
NATIONAL WEATHER SERVICE STATE COLLEGE PA
800 AM EDT FRI MAY 06 2016

Note: "fair" indicates few or no clouds below 12,000 feet with no
significant weather and/or obstructions to visibility.

* = STATION THAT DOES NOT REPORT PRECIPITATION /E.G. RAIN...SNOW...ETC/
    THUNDER OR FOG.

PAZ002>004-007>009-013>016-020>023-029>032-061300-
WESTERN PENNSYLVANIA

CITY           SKY/WX    TMP DP  RH WIND       PRES   REMARKS
ERIE           SUNNY     51  43  74 N5        29.87R
MEADVILLE      SUNNY     46  42  86 N6        29.85R
FRANKLIN*      SUNNY     48  39  71 N5        29.86R
NEW CASTLE     FAIR      49  43  80 NW7       29.86R
BEAVER COUNTY  MOSUNNY   48  43  81 N7        29.84R
BUTLER*        CLOUDY    52  43  71 N7        29.85R
PITTSBURGH INT CLOUDY    52  42  69 N13       29.82R
PITTSBURGH     PTSUNNY   51  43  74 N8        29.80R
INDIANA*       CLOUDY    52  43  71 N8        29.81S
LATROBE        CLOUDY    48  48 100 CALM      29.80R
WASHINGTON CO* CLOUDY    50  43  76 N7        29.82R
$$

PAZ004>006-010>012-017>019-024>028-033>037-041-042-045-046-049>053-061300-
CENTRAL PENNSYLVANIA

CITY           SKY/WX    TMP DP  RH WIND       PRES   REMARKS
BRADFORD       CLOUDY    49  39  68 N10       29.80S
DUBOIS         CLOUDY    48  39  71 N12       29.78S
CLEARFIELD     CLOUDY    51  40  65 N10G20    29.76S
JOHNSTOWN      CLOUDY    48  38  68 N12       29.75R
ALTOONA        CLOUDY    51  42  71 N8        29.75R
STATE COLLEGE  PTSUNNY   52  43  71 N8        29.73S
WILLIAMSPORT   CLOUDY    56  42  59 VRB3      29.73R
SELINSGROVE    CLOUDY    55  45  68 N12       29.72R
FT INDIANTOWN  LGT RAIN  54  46  72 N3        29.69R
CAPITAL CITY   CLOUDY    57  44  62 N8        29.69S
HARRISBURG     LGT RAIN  55  45  68 N6        29.69R
YORK           LGT RAIN  53  47  79 CALM      29.69R
$$

PAZ038>040-043-044-047-048-054-055-060>062-067>071-061300-
EASTERN PENNSYLVANIA

CITY           SKY/WX    TMP DP  RH WIND       PRES   REMARKS
SCRANTON       LGT RAIN  52  44  74 NE12      29.70R
MOUNT POCONO   LGT RAIN  44  42  93 NE8       29.68F
ALLENTOWN      RAIN      51  48  89 NE7       29.68F FOG
QUAKERTOWN*    CLOUDY    50  48  93 NE5       29.68S
READING        RAIN      51  48  89 NW6       29.68F
LANCASTER      RAIN      51  49  92 E3        29.68S
COATESVILLE    HVY RAIN  50  50 100 MISG      29.68S
POTTSTOWN      HVY RAIN  50  50 100 N8        29.68S FOG
BLUE BELL      CLOUDY    46  46 100 NE6       29.66S
DOYLESTOWN     LGT RAIN  48  47  96 NE8       29.66S
WILLOW GROVE   NOT AVBL
NORTH PHILA    LGT RAIN  50  47  89 NE15      29.67S FOG
PHILADELPHIA   RAIN      51  46  83 NE16      29.66S
$$




USA.gov is the U.S. government's official web portal to all federal, state and local government web resources and services.